DELTA 1 DEB, 10752

Orbit data source: Space-Track

DELTA 1 DEB, 10752 is space debris in SSO originally from a launch on Thu, 29 Jul 1976 UTC launched from the Air Force Western Test Range (AFWTR). Debris objects in space refer to the collection of defunct objects orbiting the Earth. Examples of debris include non-operational satellites, rocket bodies, and fragments generated from explosions, collisions, or faulty payload assembly.

Loading next visibility...
Identifier
10752, 1976-077AZ
Orbit
SSO
Country
Flag of USUS
Related business
Manufacturer
Unknown
Mission
Spacecraft
Bus & Motor
Unknown
Mass
Unknown
Launch date (UTC)
1976-07-29 (49 years ago)
Launch vehicle
Unknown
Launch site
Air Force Western Test Range (AFWTR)
Object type
Payload
Rocket body
Debris
Shape & HBR
Unknown shape, 0.1 m
Radar Cross Section
Small (<0.1 m²)

Expand to show TLE details & history
Last TLE update: 2 days ago

TLE from 2 days ago
0 DELTA 1 DEB
1 10752U 76077AZ  25348.91331112  .00001725  00000-0  58887-2 0  9998
2 10752 101.7271 237.9986 0338207   7.5526  54.7735 12.82641098279705
Epoch: 2025-12-14T21:55Z
TLE epoch observation values (Epoch: 2025-12-14T21:55:10.080Z)
Latitude
63.14747°
Longitude
161.31257°
Altitude
1,197.197 km
Speed
7.329 km/s
True Right ascension
14h 15m 41s
True Declination
63° 01' 00"
Sunlit
Object was in daylight at epoch
Visualization orbit readout
Latitude
Unknown
Longitude
Unknown
Altitude
Unknown
Speed
Unknown
Apparent Right ascension
Unknown
Apparent Declination
Unknown
Sunlit
N/A
Visualization observer readout
Local Sidereal Time
12:37:56
Azimuth
Unknown
Elevation
Unknown
Doppler factor
Unknown
Orbital elements
Apogee altitude
1,589.007 km
Perigee altitude
1,067.729 km
Semi-major axis
7,706.505 km
Eccentricity
0.03382
Inclination
101.7271°
RAAN
237.9986°
Arg. of periapsis
7.5526°
True anomaly
58.01668°
Mean anomaly
54.7735°
Eccentric anomaly
56.38728°
Mean motion
3.20817 °/min
Orbital period
112.21 mins
BSTAR
0.0058887
Loading maneuver chart data...
Computing Atmospheric mass density...
Loading historical data...
Loading historical data...
Loading historical data...
Loading historical data...
Loading historical data...
Loading historical data...
Loading historical data...

Documentation

Showing up to 5 results
|